| time (UTC) | temp C | wind direction | speed KPH | gust KPH | rain 1hr cm | rain 24hr cm | rain mn cm | humidity % | barometer mb |
| 20260508213558 | 25 | 149 | 3.2 | 3.2 | 0.00 | 0.00 | 0.00 | 31 | 1016.1 |
| 20260508213054 | 25 | 212 | 3.2 | 3.2 | 0.00 | 0.00 | 0.00 | 27 | 1016.3 |
| 20260508212550 | 25 | 149 | 0.0 | 3.2 | 0.00 | 0.00 | 0.00 | 29 | 1016.4 |
| 20260508212047 | 25 | 141 | 1.6 | 3.2 | 0.00 | 0.00 | 0.00 | 30 | 1016.4 |
| 20260508211542 | 25 | 164 | 1.6 | 3.2 | 0.00 | 0.00 | 0.00 | 33 | 1016.8 |
| 20260508211039 | 25 | 143 | 1.6 | 4.8 | 0.00 | 0.00 | 0.00 | 33 | 1016.5 |
| 20260508210536 | 24 | 164 | 6.4 | 9.7 | 0.00 | 0.00 | 0.00 | 29 | 1016.7 |
| 20260508210033 | 25 | 140 | 0.0 | 1.6 | 0.00 | 0.00 | 0.00 | 32 | 1016.7 |
| 20260508205530 | 25 | 140 | 1.6 | 1.6 | 0.00 | 0.00 | 0.00 | 27 | 1016.5 |
| 20260508205026 | 25 | 133 | 1.6 | 1.6 | 0.00 | 0.00 | 0.00 | 32 | 1016.7 |
| 20260508204523 | 24 | 153 | 4.8 | 4.8 | 0.00 | 0.00 | 0.00 | 28 | 1016.9 |
| 20260508204019 | 25 | 73 | 3.2 | 6.4 | 0.00 | 0.00 | 0.00 | 31 | 1016.9 |
| 20260508203515 | 25 | 141 | 1.6 | 3.2 | 0.00 | 0.00 | 0.00 | 33 | 1017.0 |
| 20260508203011 | 25 | 138 | 0.0 | 1.6 | 0.00 | 0.00 | 0.00 | 31 | 1016.9 |
| 20260508202508 | 24 | 94 | 4.8 | 4.8 | 0.00 | 0.00 | 0.00 | 30 | 1017.0 |
| 20260508202005 | 24 | 146 | 3.2 | 3.2 | 0.00 | 0.00 | 0.00 | 30 | 1017.0 |
| 20260508201501 | 23 | 166 | 3.2 | 6.4 | 0.00 | 0.00 | 0.00 | 33 | 1017.3 |
| 20260508200958 | 23 | 223 | 3.2 | 4.8 | 0.00 | 0.00 | 0.00 | 29 | 1017.1 |
| 20260508200456 | 23 | 114 | 0.0 | 1.6 | 0.00 | 0.00 | 0.00 | 30 | 1017.0 |
| 20260508195950 | 23 | 89 | 1.6 | 3.2 | 0.00 | 0.00 | 0.00 | 32 | 1017.0 |
| 20260508195448 | 24 | 136 | 1.6 | 1.6 | 0.00 | 0.00 | 0.00 | 35 | 1017.1 |
| 20260508194944 | 23 | 106 | 6.4 | 6.4 | 0.00 | 0.00 | 0.00 | 29 | 1017.0 |
| 20260508194441 | 23 | 82 | 3.2 | 3.2 | 0.00 | 0.00 | 0.00 | 31 | 1017.2 |
| 20260508193938 | 23 | 112 | 1.6 | 3.2 | 0.00 | 0.00 | 0.00 | 34 | 1017.2 |
| 20260508193435 | 23 | 255 | 8.0 | 9.7 | 0.00 | 0.00 | 0.00 | 28 | 1017.3 |
| 20260508192931 | 23 | 288 | 6.4 | 9.7 | 0.00 | 0.00 | 0.00 | 27 | 1017.3 |
| 20260508192428 | 23 | 281 | 1.6 | 3.2 | 0.00 | 0.00 | 0.00 | 30 | 1017.3 |
| 20260508191925 | 23 | 121 | 0.0 | 1.6 | 0.00 | 0.00 | 0.00 | 30 | 1017.1 |
| 20260508191423 | 23 | 129 | 1.6 | 4.8 | 0.00 | 0.00 | 0.00 | 28 | 1017.3 |
| 20260508190919 | 23 | 336 | 8.0 | 11.3 | 0.00 | 0.00 | 0.00 | 27 | 1017.6 |
| 20260508190416 | 24 | 129 | 3.2 | 9.7 | 0.00 | 0.00 | 0.00 | 30 | 1017.5 |
| 20260508185912 | 23 | 153 | 1.6 | 1.6 | 0.00 | 0.00 | 0.00 | 35 | 1017.5 |
| 20260508185410 | 23 | 206 | 3.2 | 3.2 | 0.00 | 0.00 | 0.00 | 33 | 1017.5 |
| 20260508184907 | 23 | 158 | 3.2 | 4.8 | 0.00 | 0.00 | 0.00 | 34 | 1017.5 |
| 20260508184404 | 23 | 130 | 0.0 | 0.0 | 0.00 | 0.00 | 0.00 | 34 | 1017.5 |
| 20260508183901 | 23 | 114 | 0.0 | 0.0 | 0.00 | 0.00 | 0.00 | 36 | 1017.6 |
| 20260508183358 | 23 | 132 | 0.0 | 1.6 | 0.00 | 0.00 | 0.00 | 36 | 1017.6 |
| 20260508182853 | 23 | 142 | 3.2 | 4.8 | 0.00 | 0.00 | 0.00 | 34 | 1017.6 |
| 20260508182350 | 23 | 139 | 3.2 | 6.4 | 0.00 | 0.00 | 0.00 | 33 | 1017.8 |
| 20260508181846 | 23 | 137 | 1.6 | 1.6 | 0.00 | 0.00 | 0.00 | 35 | 1017.6 |
| 20260508181343 | 23 | 135 | 1.6 | 1.6 | 0.00 | 0.00 | 0.00 | 36 | 1017.7 |
| 20260508180840 | 23 | 206 | 6.4 | 11.3 | 0.00 | 0.00 | 0.00 | 32 | 1017.9 |
| 20260508180337 | 23 | 141 | 3.2 | 3.2 | 0.00 | 0.00 | 0.00 | 35 | 1017.8 |
| 20260508175833 | 23 | 138 | 3.2 | 3.2 | 0.00 | 0.00 | 0.00 | 32 | 1018.0 |
| 20260508175329 | 23 | 126 | 1.6 | 1.6 | 0.00 | 0.00 | 0.00 | 34 | 1017.8 |
| 20260508174828 | 24 | 158 | 3.2 | 3.2 | 0.00 | 0.00 | 0.00 | 32 | 1018.0 |
| 20260508174325 | 23 | 178 | 1.6 | 3.2 | 0.00 | 0.00 | 0.00 | 34 | 1018.1 |
| 20260508173821 | 22 | 136 | 1.6 | 1.6 | 0.00 | 0.00 | 0.00 | 32 | 1017.9 |
| 20260508173318 | 22 | 136 | 0.0 | 1.6 | 0.00 | 0.00 | 0.00 | 34 | 1018.1 |
| 20260508172814 | 22 | 210 | 3.2 | 3.2 | 0.00 | 0.00 | 0.00 | 30 | 1017.9 |
| 20260508172311 | 22 | 141 | 1.6 | 1.6 | 0.00 | 0.00 | 0.00 | 33 | 1018.1 |
| 20260508171808 | 22 | 131 | 0.0 | 0.0 | 0.00 | 0.00 | 0.00 | 33 | 1018.0 |
| 20260508171304 | 22 | 133 | 0.0 | 1.6 | 0.00 | 0.00 | 0.00 | 33 | 1017.9 |
| 20260508170801 | 22 | 175 | 1.6 | 3.2 | 0.00 | 0.00 | 0.00 | 32 | 1017.9 |
| 20260508170259 | 22 | 88 | 3.2 | 4.8 | 0.00 | 0.00 | 0.00 | 35 | 1017.9 |
| 20260508165755 | 22 | 135 | 0.0 | 0.0 | 0.00 | 0.00 | 0.00 | 36 | 1018.0 |
| 20260508165253 | 22 | 160 | 3.2 | 3.2 | 0.00 | 0.00 | 0.00 | 36 | 1018.1 |
| 20260508164748 | 22 | 134 | 0.0 | 0.0 | 0.00 | 0.00 | 0.00 | 39 | 1018.0 |
| 20260508164245 | 22 | 137 | 0.0 | 0.0 | 0.00 | 0.00 | 0.00 | 36 | 1018.0 |
| 20260508163743 | 22 | 150 | 1.6 | 3.2 | 0.00 | 0.00 | 0.00 | 34 | 1018.1 |
| 20260508163241 | 22 | 160 | 3.2 | 3.2 | 0.00 | 0.00 | 0.00 | 36 | 1018.0 |
| 20260508162736 | 22 | 158 | 1.6 | 1.6 | 0.00 | 0.00 | 0.00 | 34 | 1017.8 |
| 20260508162234 | 22 | 128 | 1.6 | 1.6 | 0.00 | 0.00 | 0.00 | 33 | 1017.9 |
| 20260508161730 | 22 | 132 | 0.0 | 0.0 | 0.00 | 0.00 | 0.00 | 37 | 1017.9 |
| 20260508161228 | 21 | 155 | 0.0 | 1.6 | 0.00 | 0.00 | 0.00 | 33 | 1017.9 |
| 20260508160726 | 21 | 133 | 0.0 | 0.0 | 0.00 | 0.00 | 0.00 | 32 | 1017.9 |
| 20260508160224 | 21 | 135 | 1.6 | 1.6 | 0.00 | 0.00 | 0.00 | 33 | 1017.9 |
| 20260508155720 | 21 | 133 | 0.0 | 1.6 | 0.00 | 0.00 | 0.00 | 38 | 1017.8 |
| 20260508155217 | 21 | 131 | 0.0 | 1.6 | 0.00 | 0.00 | 0.00 | 39 | 1018.0 |
| 20260508154714 | 20 | 136 | 1.6 | 1.6 | 0.00 | 0.00 | 0.00 | 37 | 1018.0 |
| 20260508154211 | 20 | 129 | 1.6 | 1.6 | 0.00 | 0.00 | 0.00 | 39 | 1017.9 |
| 20260508153708 | 20 | 133 | 1.6 | 3.2 | 0.00 | 0.00 | 0.00 | 41 | 1017.8 |
| 20260508153205 | 20 | 137 | 0.0 | 0.0 | 0.00 | 0.00 | 0.00 | 42 | 1017.9 |
| 20260508152701 | 20 | 145 | 1.6 | 1.6 | 0.00 | 0.00 | 0.00 | 43 | 1017.7 |
| 20260508152157 | 19 | 141 | 1.6 | 1.6 | 0.00 | 0.00 | 0.00 | 41 | 1017.9 |
| 20260508151654 | 18 | 137 | 0.0 | 0.0 | 0.00 | 0.00 | 0.00 | 45 | 1017.9 |
| 20260508151151 | 18 | 137 | 0.0 | 0.0 | 0.00 | 0.00 | 0.00 | 47 | 1017.9 |
| 20260508150647 | 18 | 132 | 0.0 | 0.0 | 0.00 | 0.00 | 0.00 | 43 | 1018.0 |
| 20260508150144 | 17 | 135 | 0.0 | 0.0 | 0.00 | 0.00 | 0.00 | 50 | 1017.9 |
| 20260508145640 | 16 | 131 | 0.0 | 0.0 | 0.00 | 0.00 | 0.00 | 49 | 1017.8 |
| 20260508145136 | 15 | 137 | 0.0 | 0.0 | 0.00 | 0.00 | 0.00 | 52 | 1017.7 |
| 20260508144634 | 15 | 131 | 0.0 | 0.0 | 0.00 | 0.00 | 0.00 | 54 | 1017.8 |
| 20260508144132 | 14 | 135 | 1.6 | 1.6 | 0.00 | 0.00 | 0.00 | 54 | 1017.7 |
| 20260508143629 | 13 | 135 | 0.0 | 0.0 | 0.00 | 0.00 | 0.00 | 57 | 1017.8 |
| 20260508143125 | 13 | 120 | 0.0 | 0.0 | 0.00 | 0.00 | 0.00 | 60 | 1017.6 |
| 20260508142622 | 12 | 144 | 3.2 | 3.2 | 0.00 | 0.00 | 0.00 | 60 | 1017.6 |
| 20260508142119 | 12 | 135 | 3.2 | 4.8 | 0.00 | 0.00 | 0.00 | 61 | 1017.5 |
| 20260508141615 | 12 | 160 | 1.6 | 3.2 | 0.00 | 0.00 | 0.00 | 61 | 1017.3 |
| 20260508141113 | 11 | 136 | 0.0 | 0.0 | 0.00 | 0.00 | 0.00 | 60 | 1017.6 |
| 20260508140610 | 11 | 136 | 0.0 | 0.0 | 0.00 | 0.00 | 0.00 | 60 | 1017.2 |
| 20260508140107 | 11 | 135 | 0.0 | 0.0 | 0.00 | 0.00 | 0.00 | 61 | 1017.3 |
| 20260508135602 | 10 | 133 | 0.0 | 0.0 | 0.00 | 0.00 | 0.00 | 61 | 1017.2 |
| 20260508135059 | 10 | 133 | 0.0 | 0.0 | 0.00 | 0.00 | 0.00 | 64 | 1017.2 |
| 20260508134555 | 10 | 133 | 0.0 | 0.0 | 0.00 | 0.00 | 0.00 | 64 | 1017.0 |
| 20260508134052 | 10 | 135 | 0.0 | 0.0 | 0.00 | 0.00 | 0.00 | 66 | 1017.0 |
| 20260508133549 | 10 | 134 | 0.0 | 0.0 | 0.00 | 0.00 | 0.00 | 66 | 1017.2 |
| 20260508133047 | 9 | 138 | 0.0 | 0.0 | 0.00 | 0.00 | 0.00 | 66 | 1016.9 |
| 20260508132544 | 9 | 136 | 0.0 | 0.0 | 0.00 | 0.00 | 0.00 | 68 | 1016.9 |
| 20260508132041 | 8 | 136 | 0.0 | 0.0 | 0.00 | 0.00 | 0.00 | 68 | 1016.8 |
| 20260508131536 | 8 | 133 | 0.0 | 0.0 | 0.00 | 0.00 | 0.00 | 68 | 1016.8 |
| 20260508131033 | 8 | 133 | 0.0 | 0.0 | 0.00 | 0.00 | 0.00 | 68 | 1016.7 |
| 20260508130530 | 7 | 147 | 1.6 | 3.2 | 0.00 | 0.00 | 0.00 | 69 | 1016.8 |
| 20260508130027 | 7 | 129 | 0.0 | 0.0 | 0.00 | 0.00 | 0.00 | 70 | 1016.5 |
| 20260508125522 | 7 | 132 | 0.0 | 0.0 | 0.00 | 0.00 | 0.00 | 70 | 1016.5 |
| 20260508125020 | 7 | 130 | 0.0 | 0.0 | 0.00 | 0.00 | 0.00 | 71 | 1016.4 |
| 20260508124518 | 7 | 136 | 0.0 | 0.0 | 0.00 | 0.00 | 0.00 | 71 | 1016.3 |
| 20260508124015 | 7 | 136 | 0.0 | 0.0 | 0.00 | 0.00 | 0.00 | 70 | 1016.3 |
| 20260508123514 | 7 | 140 | 0.0 | 0.0 | 0.00 | 0.00 | 0.00 | 70 | 1016.3 |
| 20260508123010 | 6 | 134 | 0.0 | 0.0 | 0.00 | 0.00 | 0.00 | 72 | 1016.4 |
| 20260508122507 | 6 | 131 | 0.0 | 0.0 | 0.00 | 0.00 | 0.00 | 73 | 1016.3 |
| 20260508122004 | 6 | 128 | 0.0 | 0.0 | 0.00 | 0.00 | 0.00 | 74 | 1016.2 |
| 20260508121502 | 6 | 132 | 0.0 | 0.0 | 0.00 | 0.00 | 0.00 | 72 | 1016.1 |
| 20260508120959 | 6 | 132 | 0.0 | 0.0 | 0.00 | 0.00 | 0.00 | 72 | 1016.2 |
| 20260508120457 | 6 | 131 | 0.0 | 0.0 | 0.00 | 0.00 | 0.00 | 72 | 1016.1 |
| 20260508115955 | 7 | 130 | 0.0 | 0.0 | 0.00 | 0.00 | 0.00 | 72 | 1016.2 |
| 20260508115452 | 7 | 130 | 0.0 | 0.0 | 0.00 | 0.00 | 0.00 | 71 | 1016.0 |
| 20260508114949 | 7 | 128 | 0.0 | 0.0 | 0.00 | 0.00 | 0.00 | 70 | 1016.0 |
| 20260508114446 | 7 | 127 | 0.0 | 0.0 | 0.00 | 0.00 | 0.00 | 71 | 1016.0 |
| 20260508113942 | 7 | 134 | 0.0 | 0.0 | 0.00 | 0.00 | 0.00 | 72 | 1015.9 |
| 20260508113440 | 7 | 134 | 0.0 | 0.0 | 0.00 | 0.00 | 0.00 | 72 | 1015.6 |
| 20260508112937 | 7 | 134 | 0.0 | 0.0 | 0.00 | 0.00 | 0.00 | 71 | 1015.8 |
| 20260508112433 | 7 | 134 | 0.0 | 0.0 | 0.00 | 0.00 | 0.00 | 71 | 1015.8 |
| 20260508111930 | 7 | 135 | 0.0 | 0.0 | 0.00 | 0.00 | 0.00 | 70 | 1016.0 |
| 20260508111427 | 7 | 135 | 0.0 | 0.0 | 0.00 | 0.00 | 0.00 | 70 | 1015.9 |
| 20260508110924 | 7 | 134 | 0.0 | 0.0 | 0.00 | 0.00 | 0.00 | 70 | 1016.0 |
| 20260508110422 | 7 | 134 | 0.0 | 0.0 | 0.00 | 0.00 | 0.00 | 69 | 1015.8 |
| 20260508105921 | 7 | 131 | 0.0 | 0.0 | 0.00 | 0.00 | 0.00 | 68 | 1015.6 |
| 20260508105418 | 7 | 129 | 0.0 | 0.0 | 0.00 | 0.00 | 0.00 | 68 | 1015.6 |
| 20260508104915 | 8 | 134 | 0.0 | 0.0 | 0.00 | 0.00 | 0.00 | 68 | 1015.6 |
| 20260508104413 | 8 | 130 | 0.0 | 0.0 | 0.00 | 0.00 | 0.00 | 68 | 1015.5 |
| 20260508103909 | 8 | 127 | 0.0 | 0.0 | 0.00 | 0.00 | 0.00 | 68 | 1015.6 |
| 20260508103406 | 8 | 135 | 0.0 | 0.0 | 0.00 | 0.00 | 0.00 | 68 | 1015.6 |
| 20260508102904 | 8 | 132 | 0.0 | 0.0 | 0.00 | 0.00 | 0.00 | 67 | 1015.8 |
| 20260508102402 | 8 | 132 | 0.0 | 0.0 | 0.00 | 0.00 | 0.00 | 65 | 1015.5 |
| 20260508101859 | 8 | 131 | 0.0 | 0.0 | 0.00 | 0.00 | 0.00 | 65 | 1015.5 |
| 20260508101356 | 8 | 136 | 0.0 | 0.0 | 0.00 | 0.00 | 0.00 | 63 | 1015.5 |
| 20260508100853 | 8 | 129 | 0.0 | 0.0 | 0.00 | 0.00 | 0.00 | 64 | 1015.4 |
| 20260508100352 | 8 | 130 | 0.0 | 0.0 | 0.00 | 0.00 | 0.00 | 64 | 1015.4 |
| 20260508095847 | 9 | 132 | 0.0 | 0.0 | 0.00 | 0.00 | 0.00 | 63 | 1015.5 |
| 20260508095345 | 9 | 147 | 0.0 | 0.0 | 0.00 | 0.00 | 0.00 | 62 | 1015.4 |
| 20260508094842 | 9 | 136 | 0.0 | 0.0 | 0.00 | 0.00 | 0.00 | 62 | 1015.4 |
| 20260508094339 | 9 | 132 | 0.0 | 0.0 | 0.00 | 0.00 | 0.00 | 62 | 1015.5 |
| 20260508093836 | 9 | 134 | 0.0 | 0.0 | 0.00 | 0.00 | 0.00 | 61 | 1015.5 |
| 20260508093333 | 9 | 135 | 1.6 | 1.6 | 0.00 | 0.00 | 0.00 | 62 | 1015.5 |
| 20260508092831 | 9 | 132 | 0.0 | 0.0 | 0.00 | 0.00 | 0.00 | 64 | 1015.6 |
| 20260508092329 | 8 | 137 | 1.6 | 1.6 | 0.00 | 0.00 | 0.00 | 64 | 1015.3 |
| 20260508091826 | 8 | 135 | 0.0 | 1.6 | 0.00 | 0.00 | 0.00 | 65 | 1015.6 |
| 20260508091322 | 8 | 137 | 0.0 | 0.0 | 0.00 | 0.00 | 0.00 | 65 | 1015.4 |
| 20260508090820 | 8 | 139 | 0.0 | 0.0 | 0.00 | 0.00 | 0.00 | 68 | 1015.6 |
| 20260508090319 | 8 | 147 | 1.6 | 3.2 | 0.00 | 0.00 | 0.00 | 70 | 1015.4 |
| 20260508085814 | 8 | 131 | 0.0 | 0.0 | 0.00 | 0.00 | 0.00 | 71 | 1015.5 |
| 20260508085311 | 8 | 140 | 0.0 | 0.0 | 0.00 | 0.00 | 0.00 | 68 | 1015.6 |
| 20260508084808 | 8 | 132 | 0.0 | 0.0 | 0.00 | 0.00 | 0.00 | 68 | 1015.6 |
| 20260508084305 | 8 | 130 | 0.0 | 0.0 | 0.00 | 0.00 | 0.00 | 68 | 1015.4 |
| 20260508083802 | 8 | 132 | 0.0 | 0.0 | 0.00 | 0.00 | 0.00 | 69 | 1015.5 |
| 20260508083300 | 8 | 137 | 0.0 | 0.0 | 0.00 | 0.00 | 0.00 | 69 | 1015.6 |
| 20260508082759 | 8 | 136 | 0.0 | 0.0 | 0.00 | 0.00 | 0.00 | 70 | 1015.6 |
| 20260508082257 | 8 | 126 | 0.0 | 0.0 | 0.00 | 0.00 | 0.00 | 71 | 1015.9 |
| 20260508081754 | 8 | 135 | 0.0 | 0.0 | 0.00 | 0.00 | 0.00 | 70 | 1015.6 |
| 20260508081251 | 8 | 136 | 0.0 | 0.0 | 0.00 | 0.00 | 0.00 | 70 | 1015.9 |
| 20260508080748 | 8 | 139 | 0.0 | 0.0 | 0.00 | 0.00 | 0.00 | 70 | 1015.4 |
| 20260508080246 | 8 | 132 | 0.0 | 0.0 | 0.00 | 0.00 | 0.00 | 69 | 1015.4 |
| 20260508075742 | 8 | 136 | 0.0 | 0.0 | 0.00 | 0.00 | 0.00 | 68 | 1015.6 |
| 20260508075239 | 9 | 137 | 0.0 | 0.0 | 0.00 | 0.00 | 0.00 | 69 | 1015.4 |
| 20260508074737 | 9 | 135 | 0.0 | 0.0 | 0.00 | 0.00 | 0.00 | 68 | 1015.4 |
| 20260508074234 | 9 | 132 | 0.0 | 0.0 | 0.00 | 0.00 | 0.00 | 67 | 1015.4 |
| 20260508073731 | 10 | 131 | 0.0 | 0.0 | 0.00 | 0.00 | 0.00 | 67 | 1015.4 |
| 20260508073229 | 10 | 131 | 0.0 | 0.0 | 0.00 | 0.00 | 0.00 | 66 | 1015.2 |
| 20260508072725 | 10 | 128 | 0.0 | 0.0 | 0.00 | 0.00 | 0.00 | 65 | 1015.4 |
| 20260508072222 | 10 | 113 | 0.0 | 0.0 | 0.00 | 0.00 | 0.00 | 65 | 1015.4 |
| 20260508071719 | 10 | 132 | 0.0 | 0.0 | 0.00 | 0.00 | 0.00 | 64 | 1015.4 |
| 20260508071217 | 10 | 128 | 0.0 | 1.6 | 0.00 | 0.00 | 0.00 | 63 | 1015.3 |
| 20260508070714 | 10 | 134 | 0.0 | 0.0 | 0.00 | 0.00 | 0.00 | 63 | 1015.4 |
| 20260508070213 | 10 | 136 | 0.0 | 0.0 | 0.00 | 0.00 | 0.00 | 62 | 1015.4 |
| 20260508065710 | 10 | 135 | 0.0 | 0.0 | 0.00 | 0.00 | 0.00 | 61 | 1015.3 |
| 20260508065208 | 10 | 132 | 0.0 | 0.0 | 0.00 | 0.00 | 0.00 | 62 | 1015.5 |
| 20260508064705 | 10 | 136 | 0.0 | 0.0 | 0.00 | 0.00 | 0.00 | 61 | 1015.3 |
| 20260508064203 | 11 | 138 | 0.0 | 0.0 | 0.00 | 0.00 | 0.00 | 60 | 1015.4 |
| 20260508063700 | 11 | 133 | 0.0 | 0.0 | 0.00 | 0.00 | 0.00 | 59 | 1015.3 |
| 20260508063158 | 11 | 129 | 0.0 | 0.0 | 0.00 | 0.00 | 0.00 | 59 | 1015.2 |
| 20260508062655 | 11 | 130 | 0.0 | 0.0 | 0.00 | 0.00 | 0.00 | 59 | 1015.2 |
| 20260508062152 | 12 | 133 | 0.0 | 0.0 | 0.00 | 0.00 | 0.00 | 57 | 1015.1 |
| 20260508061649 | 12 | 133 | 0.0 | 0.0 | 0.00 | 0.00 | 0.00 | 56 | 1014.8 |
| 20260508061147 | 12 | 132 | 0.0 | 0.0 | 0.00 | 0.00 | 0.00 | 56 | 1015.0 |
| 20260508060643 | 12 | 133 | 0.0 | 0.0 | 0.00 | 0.00 | 0.00 | 56 | 1015.0 |
| 20260508060141 | 12 | 136 | 0.0 | 0.0 | 0.00 | 0.00 | 0.00 | 55 | 1015.1 |
| 20260508055636 | 12 | 130 | 0.0 | 0.0 | 0.00 | 0.00 | 0.00 | 54 | 1015.2 |
| 20260508055133 | 12 | 131 | 0.0 | 0.0 | 0.00 | 0.00 | 0.00 | 53 | 1015.0 |
| 20260508054629 | 12 | 130 | 0.0 | 0.0 | 0.00 | 0.00 | 0.00 | 52 | 1015.2 |
| 20260508054127 | 12 | 129 | 0.0 | 0.0 | 0.00 | 0.00 | 0.00 | 51 | 1015.1 |
| 20260508053624 | 13 | 130 | 0.0 | 0.0 | 0.00 | 0.00 | 0.00 | 50 | 1015.1 |
| 20260508053122 | 13 | 130 | 0.0 | 0.0 | 0.00 | 0.00 | 0.00 | 49 | 1015.2 |
| 20260508052619 | 13 | 130 | 0.0 | 0.0 | 0.00 | 0.00 | 0.00 | 49 | 1015.2 |
| 20260508052116 | 13 | 123 | 0.0 | 0.0 | 0.00 | 0.00 | 0.00 | 49 | 1015.1 |
| 20260508051612 | 13 | 135 | 0.0 | 0.0 | 0.00 | 0.00 | 0.00 | 48 | 1015.1 |
| 20260508051107 | 14 | 130 | 0.0 | 0.0 | 0.00 | 0.00 | 0.00 | 48 | 1015.1 |
| 20260508050604 | 14 | 130 | 0.0 | 0.0 | 0.00 | 0.00 | 0.00 | 48 | 1015.1 |
| 20260508045557 | 14 | 132 | 0.0 | 0.0 | 0.00 | 0.00 | 0.00 | 48 | 1014.8 |
| 20260508045055 | 14 | 134 | 0.0 | 0.0 | 0.00 | 0.00 | 0.00 | 48 | 1014.8 |
| 20260508044552 | 13 | 130 | 0.0 | 0.0 | 0.00 | 0.00 | 0.00 | 49 | 1015.1 |
| 20260508044048 | 14 | 133 | 0.0 | 0.0 | 0.00 | 0.00 | 0.00 | 48 | 1014.8 |
| 20260508043545 | 15 | 130 | 0.0 | 0.0 | 0.00 | 0.00 | 0.00 | 47 | 1014.7 |
| 20260508043043 | 15 | 134 | 0.0 | 0.0 | 0.00 | 0.00 | 0.00 | 46 | 1014.7 |
| 20260508042539 | 15 | 134 | 0.0 | 0.0 | 0.00 | 0.00 | 0.00 | 46 | 1014.7 |
| 20260508042037 | 15 | 130 | 0.0 | 0.0 | 0.00 | 0.00 | 0.00 | 45 | 1014.7 |
| 20260508041533 | 15 | 132 | 0.0 | 0.0 | 0.00 | 0.00 | 0.00 | 44 | 1014.7 |
| 20260508041029 | 15 | 127 | 0.0 | 0.0 | 0.00 | 0.00 | 0.00 | 45 | 1014.8 |
| 20260508040526 | 15 | 137 | 0.0 | 0.0 | 0.00 | 0.00 | 0.00 | 45 | 1014.8 |
| 20260508040024 | 16 | 135 | 0.0 | 0.0 | 0.00 | 0.00 | 0.00 | 44 | 1014.6 |
| 20260508035520 | 16 | 134 | 0.0 | 0.0 | 0.00 | 0.00 | 0.00 | 44 | 1014.4 |
| 20260508035018 | 16 | 129 | 0.0 | 0.0 | 0.00 | 0.00 | 0.00 | 44 | 1014.6 |
| 20260508034515 | 16 | 115 | 1.6 | 1.6 | 0.00 | 0.00 | 0.00 | 45 | 1014.6 |
| 20260508034012 | 15 | 134 | 0.0 | 0.0 | 0.00 | 0.00 | 0.00 | 46 | 1014.4 |
| 20260508033509 | 15 | 131 | 0.0 | 0.0 | 0.00 | 0.00 | 0.00 | 48 | 1014.5 |
| 20260508033007 | 15 | 127 | 0.0 | 0.0 | 0.00 | 0.00 | 0.00 | 49 | 1014.3 |
| 20260508032504 | 15 | 131 | 0.0 | 0.0 | 0.00 | 0.00 | 0.00 | 49 | 1014.6 |
| 20260508032001 | 15 | 131 | 0.0 | 0.0 | 0.00 | 0.00 | 0.00 | 49 | 1014.3 |
| 20260508031459 | 15 | 131 | 0.0 | 0.0 | 0.00 | 0.00 | 0.00 | 49 | 1014.0 |
| 20260508030953 | 15 | 132 | 0.0 | 0.0 | 0.00 | 0.00 | 0.00 | 49 | 1014.0 |
| 20260508030451 | 15 | 132 | 0.0 | 0.0 | 0.00 | 0.00 | 0.00 | 48 | 1014.3 |
| 20260508025948 | 16 | 132 | 0.0 | 0.0 | 0.00 | 0.00 | 0.00 | 47 | 1014.0 |
| 20260508025444 | 16 | 132 | 0.0 | 0.0 | 0.00 | 0.00 | 0.00 | 46 | 1014.2 |
| 20260508024942 | 16 | 132 | 0.0 | 0.0 | 0.00 | 0.00 | 0.00 | 45 | 1014.0 |
| 20260508024438 | 17 | 134 | 0.0 | 0.0 | 0.00 | 0.00 | 0.00 | 44 | 1013.8 |
| 20260508023935 | 17 | 134 | 0.0 | 0.0 | 0.00 | 0.00 | 0.00 | 43 | 1013.8 |
| 20260508023431 | 17 | 136 | 0.0 | 0.0 | 0.00 | 0.00 | 0.00 | 41 | 1013.8 |
| 20260508022929 | 18 | 136 | 0.0 | 0.0 | 0.00 | 0.00 | 0.00 | 40 | 1013.9 |
| 20260508022424 | 18 | 136 | 0.0 | 0.0 | 0.00 | 0.00 | 0.00 | 40 | 1014.0 |
| 20260508021921 | 19 | 137 | 0.0 | 0.0 | 0.00 | 0.00 | 0.00 | 38 | 1013.9 |
| 20260508021418 | 20 | 137 | 0.0 | 0.0 | 0.00 | 0.00 | 0.00 | 37 | 1013.8 |
| 20260508020913 | 20 | 137 | 0.0 | 0.0 | 0.00 | 0.00 | 0.00 | 36 | 1013.8 |
| 20260508020412 | 20 | 138 | 0.0 | 0.0 | 0.00 | 0.00 | 0.00 | 34 | 1013.7 |
| 20260508015908 | 20 | 137 | 0.0 | 0.0 | 0.00 | 0.00 | 0.00 | 34 | 1013.8 |
| 20260508015406 | 21 | 157 | 3.2 | 3.2 | 0.00 | 0.00 | 0.00 | 34 | 1013.7 |
| 20260508014902 | 21 | 138 | 0.0 | 0.0 | 0.00 | 0.00 | 0.00 | 34 | 1013.7 |
| 20260508014400 | 21 | 141 | 1.6 | 1.6 | 0.00 | 0.00 | 0.00 | 33 | 1013.9 |
| 20260508013855 | 21 | 138 | 0.0 | 0.0 | 0.00 | 0.00 | 0.00 | 32 | 1013.9 |
| 20260508013351 | 21 | 138 | 1.6 | 1.6 | 0.00 | 0.00 | 0.00 | 32 | 1013.9 |
| 20260508012849 | 22 | 136 | 3.2 | 3.2 | 0.00 | 0.00 | 0.00 | 32 | 1013.8 |
| 20260508012346 | 22 | 135 | 0.0 | 0.0 | 0.00 | 0.00 | 0.00 | 31 | 1013.8 |
| 20260508011844 | 22 | 154 | 0.0 | 1.6 | 0.00 | 0.00 | 0.00 | 30 | 1013.6 |
| 20260508011341 | 23 | 137 | 0.0 | 1.6 | 0.00 | 0.00 | 0.00 | 31 | 1013.9 |
| 20260508010838 | 23 | 197 | 3.2 | 3.2 | 0.00 | 0.00 | 0.00 | 31 | 1014.0 |
| 20260508010336 | 23 | 177 | 4.8 | 6.4 | 0.00 | 0.00 | 0.00 | 30 | 1013.9 |
| 20260508005833 | 23 | 133 | 0.0 | 1.6 | 0.00 | 0.00 | 0.00 | 30 | 1013.8 |
| 20260508005329 | 23 | 150 | 6.4 | 9.7 | 0.00 | 0.00 | 0.00 | 30 | 1013.9 |
| 20260508004825 | 23 | 165 | 1.6 | 3.2 | 0.00 | 0.00 | 0.00 | 29 | 1014.2 |
| 20260508004322 | 24 | 166 | 3.2 | 4.8 | 0.00 | 0.00 | 0.00 | 29 | 1014.0 |
| 20260508003818 | 24 | 168 | 3.2 | 3.2 | 0.00 | 0.00 | 0.00 | 29 | 1014.0 |
| 20260508003316 | 24 | 144 | 1.6 | 1.6 | 0.00 | 0.00 | 0.00 | 31 | 1014.0 |
| 20260508002813 | 24 | 149 | 1.6 | 3.2 | 0.00 | 0.00 | 0.00 | 31 | 1014.0 |
| 20260508002309 | 24 | 171 | 3.2 | 4.8 | 0.00 | 0.00 | 0.00 | 30 | 1014.2 |
| 20260508001805 | 25 | 153 | 3.2 | 4.8 | 0.00 | 0.00 | 0.00 | 28 | 1014.2 |
| 20260508001301 | 25 | 198 | 3.2 | 4.8 | 0.00 | 0.00 | 0.00 | 28 | 1013.9 |
| 20260508000757 | 25 | 170 | 6.4 | 6.4 | 0.00 | 0.00 | 0.00 | 29 | 1013.8 |
| 20260508000254 | 24 | 138 | 0.0 | 0.0 | 0.00 | 0.00 | 0.00 | 30 | 1013.8 |
| 20260507235751 | 24 | 142 | 3.2 | 3.2 | 0.00 | 0.00 | 0.00 | 30 | 1013.7 |
| 20260507235249 | 25 | 269 | 8.0 | 11.3 | 0.00 | 0.00 | 0.00 | 29 | 1014.2 |
| 20260507234745 | 25 | 140 | 1.6 | 3.2 | 0.00 | 0.00 | 0.00 | 31 | 1014.2 |
| 20260507234242 | 24 | 139 | 0.0 | 1.6 | 0.00 | 0.00 | 0.00 | 32 | 1014.2 |
| 20260507233738 | 25 | 205 | 1.6 | 3.2 | 0.00 | 0.00 | 0.00 | 31 | 1014.5 |
| 20260507233236 | 25 | 155 | 1.6 | 1.6 | 0.00 | 0.00 | 0.00 | 31 | 1014.4 |
| 20260507232734 | 25 | 178 | 3.2 | 3.2 | 0.00 | 0.00 | 0.00 | 30 | 1014.4 |
| 20260507232230 | 25 | 129 | 3.2 | 4.8 | 0.00 | 0.00 | 0.00 | 33 | 1014.6 |
| 20260507231727 | 25 | 137 | 1.6 | 4.8 | 0.00 | 0.00 | 0.00 | 31 | 1014.7 |
| 20260507231224 | 24 | 141 | 0.0 | 1.6 | 0.00 | 0.00 | 0.00 | 33 | 1014.6 |
| 20260507230720 | 23 | 131 | 3.2 | 3.2 | 0.00 | 0.00 | 0.00 | 33 | 1014.8 |
| 20260507230218 | 24 | 258 | 6.4 | 9.7 | 0.00 | 0.00 | 0.00 | 30 | 1014.8 |
| 20260507225717 | 25 | 179 | 8.0 | 9.7 | 0.00 | 0.00 | 0.00 | 28 | 1014.8 |
| 20260507225214 | 25 | 156 | 3.2 | 3.2 | 0.00 | 0.00 | 0.00 | 31 | 1015.1 |
| 20260507224710 | 23 | 142 | 1.6 | 1.6 | 0.00 | 0.00 | 0.00 | 34 | 1015.2 |
| 20260507224207 | 23 | 98 | 6.4 | 9.7 | 0.00 | 0.00 | 0.00 | 30 | 1015.3 |
| 20260507223703 | 24 | 155 | 4.8 | 6.4 | 0.00 | 0.00 | 0.00 | 30 | 1015.4 |
| 20260507223200 | 24 | 147 | 0.0 | 1.6 | 0.00 | 0.00 | 0.00 | 34 | 1015.4 |
| 20260507222657 | 24 | 127 | 1.6 | 3.2 | 0.00 | 0.00 | 0.00 | 33 | 1015.5 |
| 20260507222153 | 23 | 139 | 1.6 | 1.6 | 0.00 | 0.00 | 0.00 | 32 | 1015.5 |
| 20260507221649 | 22 | 142 | 0.0 | 0.0 | 0.00 | 0.00 | 0.00 | 34 | 1015.5 |
| 20260507221146 | 21 | 165 | 0.0 | 1.6 | 0.00 | 0.00 | 0.00 | 37 | 1015.6 |
| 20260507220643 | 21 | 151 | 1.6 | 1.6 | 0.00 | 0.00 | 0.00 | 34 | 1015.8 |
| 20260507220141 | 21 | 140 | 0.0 | 0.0 | 0.00 | 0.00 | 0.00 | 36 | 1015.8 |
| 20260507215637 | 21 | 141 | 0.0 | 1.6 | 0.00 | 0.00 | 0.00 | 34 | 1015.9 |
| 20260507215134 | 21 | 131 | 1.6 | 1.6 | 0.00 | 0.00 | 0.00 | 31 | 1016.0 |
| 20260507214631 | 22 | 137 | 0.0 | 0.0 | 0.00 | 0.00 | 0.00 | 33 | 1015.9 |
| 20260507214128 | 22 | 151 | 0.0 | 0.0 | 0.00 | 0.00 | 0.00 | 36 | 1016.2 |